Change the Weather History Date:

Wednesday, October 3, 2012

  Actual Average Record
Temperature  
Mean Temperature 42 °F -  
Max Temperature 50 °F 76 °F 87 °F (2011)
Min Temperature 33 °F 28 °F 24 °F (1999)
Degree Days  
Heating Degree Days 24    
Moisture  
Dew Point 32 °F    
Average Humidity 83    
Maximum Humidity 93    
Minimum Humidity 54    
Precipitation  
Precipitation 0.36 in - - ()
Sea Level Pressure  
Sea Level Pressure 30.11 in    
Wind  
Wind Speed 12 mph (NNW)    
Max Wind Speed 20 mph    
Max Gust Speed 25 mph    
Visibility 6 miles    
Events Rain , Snow    
Averages and records for this station are not official NWS values.
T = Trace of Precipitation, MM = Missing Value Source: NWS Daily Summary

Daily Weather History Graph

Daily Weather History Graph

Search for Another Location

Airport or City:

Trip Planner

Search our weather history database for the weather conditions in past years. The results will help you decide how hot, cold, wet, or windy it might be!

Date:

Astronomy

Oct. 03, 2012 Rise Set
Actual Time 6:58 AM MDT 6:32 PM MDT
Civil Twilight 6:28 AM MDT 7:01 PM MDT
Nautical Twilight 5:54 AM MDT 7:36 PM MDT
Astronomical Twilight 5:18 AM MDT 8:11 PM MDT
Moon 8:11 PM MDT (10/3) 10:38 AM MDT (10/3)
Length of Visible Light 12h 33m
Length of Day
11h 33m
Waning Gibbous, 88% of the Moon is Illuminated
Oct 3
Waning Gibbous
Oct 8
Last Quarter
Oct 15
New
Oct 21
First Quarter
Oct 29
Full

Hourly Weather History & Observations

Time (MDT) Temp. Windchill Dew Point Humidity Pressure Visibility Wind Dir Wind Speed Gust Speed Precip Events Conditions
12:51 AM 50.0 °F - 34.0 °F 54% 29.81 in 10.0 mi ENE 9.2 mph - N/A   Clear
1:51 AM 50.0 °F - 35.1 °F 57% 29.83 in 10.0 mi NE 10.4 mph - N/A   Clear
2:51 AM 48.0 °F - 35.1 °F 61% 29.81 in 10.0 mi ENE 11.5 mph - N/A   Clear
3:51 AM 46.0 °F 43.1 °F 35.1 °F 66% 29.81 in 10.0 mi East 5.8 mph - N/A   Clear
4:51 AM 45.0 °F 38.5 °F 36.0 °F 71% 29.84 in 10.0 mi NE 13.8 mph - N/A   Overcast
5:51 AM 43.0 °F 35.7 °F 35.1 °F 74% 29.91 in 10.0 mi North 15.0 mph - N/A   Mostly Cloudy
6:35 AM 41.0 °F 33.9 °F 33.8 °F 76% 29.94 in 10.0 mi NNE 12.7 mph 23.0 mph N/A   Mostly Cloudy
6:41 AM 41.0 °F 32.5 °F 33.8 °F 76% 29.95 in 10.0 mi North 17.3 mph 21.9 mph N/A   Mostly Cloudy
6:51 AM 41.0 °F 33.5 °F 33.1 °F 73% 29.96 in 10.0 mi North 13.8 mph 21.9 mph N/A   Mostly Cloudy
7:51 AM 39.9 °F 32.1 °F 33.1 °F 77% 30.00 in 10.0 mi North 13.8 mph 20.7 mph N/A   Overcast
7:57 AM 39.2 °F 29.8 °F 33.8 °F 81% 29.98 in 10.0 mi NNE 18.4 mph - N/A   Overcast
8:51 AM 39.0 °F 32.3 °F 35.1 °F 86% 30.04 in 10.0 mi North 10.4 mph 19.6 mph 0.01 in Rain Light Rain
9:35 AM 37.4 °F 29.8 °F 33.8 °F 87% 30.05 in 10.0 mi North 11.5 mph 21.9 mph 0.01 in Rain Light Rain
9:51 AM 37.0 °F 31.0 °F 33.1 °F 86% 30.08 in 9.0 mi NNE 8.1 mph - 0.02 in Rain Light Rain
9:56 AM 35.6 °F 30.7 °F 33.8 °F 93% 30.04 in 6.0 mi NNE 5.8 mph - 0.02 in Rain Heavy Rain
10:51 AM 37.0 °F 28.9 °F 34.0 °F 89% 30.11 in 10.0 mi NNW 12.7 mph - 0.10 in Rain Light Rain
11:17 AM 33.8 °F 24.3 °F 30.2 °F 87% 30.08 in 1.8 mi NNW 13.8 mph 24.2 mph 0.03 in Snow Light Snow
11:24 AM 33.8 °F 24.8 °F 30.2 °F 87% 30.10 in 1.2 mi NW 12.7 mph - 0.05 in Snow Light Snow
11:37 AM 33.8 °F 24.8 °F 30.2 °F 87% 30.09 in 2.0 mi NNW 12.7 mph - 0.06 in Snow Light Snow
11:42 AM 33.8 °F 24.3 °F 30.2 °F 87% 30.10 in 1.0 mi NNW 13.8 mph - 0.07 in Snow Light Snow
11:48 AM 33.8 °F 24.8 °F 30.2 °F 87% 30.10 in 0.8 mi NNW 12.7 mph 24.2 mph 0.08 in Snow Light Snow
11:51 AM 33.1 °F 22.2 °F 30.0 °F 89% 30.13 in 0.8 mi NNW 17.3 mph 25.3 mph 0.09 in Snow Light Snow
12:00 PM 33.8 °F 24.3 °F 30.2 °F 87% 30.10 in 1.5 mi NNW 13.8 mph 23.0 mph 0.00 in Snow Light Snow
12:06 PM 33.8 °F 25.3 °F 30.2 °F 87% 30.12 in 3.0 mi NW 11.5 mph 23.0 mph 0.00 in Snow Light Snow
12:16 PM 33.8 °F 24.3 °F 30.2 °F 87% 30.12 in 8.0 mi NW 13.8 mph - 0.00 in Snow Light Snow
12:28 PM 33.8 °F 24.3 °F 30.2 °F 87% 30.12 in 2.0 mi NW 13.8 mph - 0.00 in Snow Light Snow
12:34 PM 33.8 °F 24.8 °F 30.2 °F 87% 30.12 in 1.8 mi NW 12.7 mph - 0.01 in Snow Light Snow
12:43 PM 33.8 °F 23.5 °F 30.2 °F 87% 30.12 in 0.8 mi NW 16.1 mph 24.2 mph 0.01 in Snow Light Snow
12:51 PM 33.1 °F 21.9 °F 30.0 °F 89% 30.16 in 0.8 mi NW 18.4 mph 23.0 mph 0.01 in Snow Light Snow
1:34 PM 33.8 °F 25.3 °F 30.2 °F 87% 30.13 in 1.0 mi NW 11.5 mph - 0.04 in Snow Light Snow
1:46 PM 33.8 °F 23.9 °F 30.2 °F 87% 30.13 in 2.0 mi NW 15.0 mph - 0.04 in Snow Light Snow
1:51 PM 33.1 °F 23.9 °F 30.0 °F 89% 30.18 in 2.0 mi NW 12.7 mph - 0.04 in Snow Light Snow
1:57 PM 33.8 °F 23.9 °F 30.2 °F 87% 30.14 in 3.0 mi NW 15.0 mph - 0.01 in Snow Light Snow
2:51 PM 34.0 °F 24.6 °F 30.9 °F 89% 30.21 in 2.5 mi NW 13.8 mph - 0.01 in Snow Light Snow
2:59 PM 33.8 °F 24.8 °F 30.2 °F 87% 30.17 in 4.0 mi NW 12.7 mph - 0.00 in Snow Light Snow
3:51 PM 34.0 °F 25.0 °F 30.9 °F 89% 30.25 in 9.0 mi NW 12.7 mph - 0.01 in Snow Light Snow
4:51 PM 36.0 °F 26.3 °F 33.1 °F 89% 30.27 in 10.0 mi NNW 16.1 mph 25.3 mph 0.02 in Rain Light Rain
5:51 PM 37.0 °F 28.1 °F 33.1 °F 86% 30.31 in 10.0 mi NNW 15.0 mph - 0.01 in Rain Light Rain
6:51 PM 36.0 °F 26.7 °F 33.1 °F 89% 30.34 in 10.0 mi NNW 15.0 mph 25.3 mph 0.02 in Rain Light Rain
7:51 PM 35.1 °F 24.1 °F 32.0 °F 89% 30.37 in 10.0 mi NNW 19.6 mph 23.0 mph 0.02 in Rain Light Rain
8:51 PM 35.1 °F 25.2 °F 32.0 °F 89% 30.40 in 10.0 mi NNW 16.1 mph 24.2 mph 0.00 in   Overcast
9:51 PM 35.1 °F 25.9 °F 32.0 °F 89% 30.41 in 10.0 mi NNW 13.8 mph 20.7 mph 0.00 in   Overcast
10:51 PM 35.1 °F 25.9 °F 30.9 °F 85% 30.43 in 10.0 mi NNW 13.8 mph 23.0 mph 0.00 in   Overcast
11:20 PM 33.8 °F 23.5 °F 30.2 °F 87% 30.36 in 10.0 mi NNW 16.1 mph - N/A   Overcast
11:51 PM 35.1 °F 26.4 °F 30.9 °F 85% 30.45 in 10.0 mi North 12.7 mph 21.9 mph N/A   Overcast